{"data":{"norad_id":51986,"epoch":"2026-09-19T14:14:29.522400Z","epoch_age_seconds":134372,"freshness":"FRESH","line1":"1 51986U 22025AG  26262.59339725 -.00001051  00000+0 -19216-4 0  9992","line2":"2 51986  53.1596 239.6785 0001294  83.1980 276.9171 15.35396922250459","mean_motion":15.35396922,"eccentricity":0.0001294,"inclination_deg":53.1596,"raan_deg":239.6785,"arg_perigee_deg":83.198,"mean_anomaly_deg":276.9171,"bstar":-1.9216e-5,"rev_number":25045,"period_min":93.786823417899,"perigee_km":458.85695977828,"apogee_km":460.62660280688,"semimajor_km":6837.8787812926,"source":"CELESTRAK","updated_at":"2026-09-20T09:00:39.980179Z"}}